Location: Hope
(40.9110°N, 74.9680°W)
Time: 06:25:46
(UTC-05:00)

OTV 5 (USA 277) - Pass Details

Date: 30 January 2019
Orbit: 342 x 346 km, 54.5° (Epoch: 17 February)

Event Time Altitude Azimuth Distance (km) Brightness Sun altitude
Exits shadow 06:26:48 11° 313° (NW) 1,249 ? -9.0°
Maximum altitude 06:27:54 13° 336° (NNW) 1,159 ? -8.8°
Drops below altitude 10° 06:29:15 10° 5° (N) 1,296 ? -8.5°
Sets 06:32:07 0° 37° (NE) 2,139 ? -8.0°
